Location: Staunton
(38.1490°N, 79.0720°W)
Time: 22:32:35
(UTC-04:00)

ISS - Pass Details

Date: 27 March 2017
Orbit: 401 x 409 km, 51.6° (Epoch: 01 May)

Event Time Altitude Azimuth Distance (km) Brightness Sun altitude
Rises 20:08:47 0° 206° (SSW) 2,299 0.2 -7.4°
Reaches altitude 10° 20:11:00 10° 195° (SSW) 1,446 -1.0 -7.8°
Maximum altitude 20:13:51 29° 133° (SE) 777 -2.9 -8.4°
Drops below altitude 10° 20:16:44 10° 72° (ENE) 1,459 -1.5 -8.9°
Enters shadow 20:16:50 - 71° (ENE) 1,497 -1.5 -9.0°
